sat.trackr.live / text

‹ back to catalog

STARLINK-11142 [DTC]

NORAD 59957 · 2024-107N

PAYLOAD ACTIVE UNKNOWN

§ Identity

Operator
Country
US
Launch date
2024-06-05
Launch site
AFETR
Launch vehicle
Mass (kg)
RCS (m²)

Purposes: comms

External: N2YO · Heavens-Above · Gunter

§ Orbital elements

Epoch: 2026-05-24T17:35:14.998272Z

Period
91.74 min
Inclination
53.1585°
Eccentricity
0.0001523
Mean motion
15.69706963 rev/d
Perigee alt
358.7 km
Apogee alt
360.8 km
Semi-major
6,737.9 km
B*
7.6744e-6
RAAN
236.0834°
Arg perigee
90.7197°
Mean anomaly
269.3995°
Rev number
11,410

§ Raw data

STARLINK-11142 [DTC]1 59957U 24107N   26144.73281248  .00000340  00000+0  76744-5 0  99902 59957  53.1585 236.0834 0001523  90.7197 269.3995 15.69706963114106

JSON: /api/v1/satellites/59957 · /tle

For live sub-satellite position, see the globe view (requires WebGL).

§ Visibility from observer

Set your observer location to see the next 7 days of passes ≥ 10°. The values pass through the URL so the page stays shareable.

No JS? Fill the form by hand. The geolocation button needs JavaScript.